Location: Montreal
(45.5087°N, 73.5540°W)
Time: 10:51:19
(UTC-04:00)

HTV-X1 - Visible Passes

Search period start: 10 May 2026 00:00
Search period end: 20 May 2026 00:00
Orbit: 373 x 383 km, 51.6° (Epoch: 10 May)

Date Brightness Start Highest point End Pass type
(mag) Time Alt. Az. Time Alt. Az. Time Alt. Az.
10 May ? 04:16:36 16° SSW 04:16:36 16° SSW 04:17:52 10° S visible
10 May ? 20:47:46 10° SSW 20:50:31 30° SE 20:53:16 10° ENE visible
10 May ? 22:23:20 10° W 22:26:19 46° NNW 22:29:19 10° NE visible
11 May ? 00:00:03 10° WNW 00:01:46 21° NNW 00:01:46 21° NNW visible
11 May ? 21:22:20 10° WSW 21:25:25 83° NNW 21:28:31 10° ENE visible
11 May ? 22:58:54 10° WNW 23:01:37 27° N 23:03:44 14° NE visible
12 May ? 00:35:18 10° NW 00:35:51 13° NW 00:35:51 13° NW visible
12 May ? 21:57:40 10° W 22:00:34 36° NNW 22:03:27 10° NE visible
12 May ? 23:34:21 10° NW 23:36:59 25° N 23:37:25 24° NNE visible
13 May ? 20:56:32 10° WSW 20:59:34 57° NNW 21:02:37 10° ENE visible
13 May ? 22:33:13 10° WNW 22:35:52 25° N 22:38:31 10° NE visible
14 May ? 00:09:26 10° NW 00:10:53 22° NW 00:10:53 22° NW visible
14 May ? 21:31:58 10° WNW 21:34:45 30° NNW 21:37:32 10° NE visible
14 May ? 23:08:30 10° NW 23:11:12 27° N 23:12:10 22° NE visible
15 May ? 22:07:25 10° WNW 22:10:03 25° N 22:12:40 10° ENE visible
15 May ? 23:43:27 10° NW 23:45:27 31° NNW 23:45:27 31° NNW visible
16 May ? 21:06:10 10° WNW 21:08:52 27° N 21:11:33 10° NE visible
16 May ? 22:42:31 10° NW 22:45:19 30° NNE 22:46:38 21° NE visible
17 May ? 00:18:19 10° WNW 00:18:43 13° WNW 00:18:43 13° WNW visible
17 May ? 21:41:28 10° NW 21:44:08 25° N 21:46:46 10° ENE visible
17 May ? 23:17:22 10° WNW 23:19:52 47° NNW 23:19:52 47° NNW visible
18 May ? 22:16:25 10° NW 22:19:19 36° NNE 22:21:00 20° ENE visible
18 May ? 23:52:17 10° WNW 23:53:04 16° WNW 23:53:04 16° WNW visible
19 May ? 21:15:24 10° NW 21:18:07 27° N 21:20:50 10° ENE visible
19 May ? 22:51:13 10° WNW 22:54:12 80° NNW 22:54:12 80° NNW visible
